�N����,�����b,�ŏ������i�x�j,���ϕ����i�x�j,�ő啗���i�x�j,�ŏ�����(m/s),���ϕ���(m/s),�ő啗��(m/s),�C��(���j,���x�i���j,�C��(hPa),�~�J��(mm),�~�J����(�b�j,�~�J���x(mm/h),�~�Ђ傤��(hit/���u),�~�Ђ傤����(�b�j,�~�Ђ傤���x(hit/���uh),�q�[�^���x(���j,�q�[�^�[�d���iV),�d���d���iV),�Q�Ɠd���iV)
2009/05/01,00:00:01,270,89,263,0.1,5.0,13.2,20.3,60.7,1014.3,0.00,0,0.0,0.0,0,0.0,19.6,0.0,11.9,3.473
2009/05/01,00:10:01,279,92,249,0.2,4.8,12.0,20.3,60.6,1014.2,0.00,0,0.0,0.0,0,0.0,19.4,0.0,11.7,3.473
2009/05/01,00:20:01,264,82,262,0.1,4.0,13.5,20.1,61.3,1014.0,0.00,0,0.0,0.0,0,0.0,19.6,0.0,11.9,3.473
2009/05/01,00:30:01,273,82,261,0.1,4.2,12.7,20.0,60.4,1013.9,0.00,0,0.0,0.0,0,0.0,19.1,0.0,11.9,3.473
2009/05/01,00:40:01,266,85,261,0.0,4.0,12.9,20.0,61.9,1013.9,0.00,0,0.0,0.0,0,0.0,19.1,0.0,12.1,3.473
2009/05/01,00:50:01,266,84,248,0.1,4.2,13.0,20.1,61.6,1013.9,0.00,0,0.0,0.0,0,0.0,19.1,0.0,11.9,3.472
2009/05/01,01:00:01,278,75,255,0.0,3.9,13.4,20.1,61.6,1013.9,0.00,0,0.0,0.0,0,0.0,19.4,0.0,11.7,3.473
2009/05/01,01:10:01,256,77,249,0.1,4.2,14.1,20.2,61.6,1013.8,0.00,0,0.0,0.0,0,0.0,19.2,0.0,11.5,3.472
2009/05/01,01:20:01,278,74,246,0.2,4.0,15.6,20.1,62.8,1013.7,0.00,0,0.0,0.0,0,0.0,19.4,0.0,11.7,3.473
2009/05/01,01:30:01,254,74,240,0.1,4.3,14.3,20.2,63.9,1013.5,0.00,0,0.0,0.0,0,0.0,19.4,0.0,11.6,3.473
2009/05/01,01:40:01,257,70,250,0.0,4.4,16.4,20.2,64.0,1013.5,0.00,0,0.0,0.0,0,0.0,19.4,0.0,11.9,3.473
2009/05/01,01:50:01,265,77,255,0.1,4.6,14.5,20.3,65.0,1013.5,0.00,0,0.0,0.0,0,0.0,19.2,0.0,11.6,3.472
2009/05/01,02:00:01,259,77,255,0.2,4.7,14.2,20.3,65.3,1013.5,0.00,0,0.0,0.0,0,0.0,19.4,0.0,11.7,3.473
2009/05/01,02:10:01,263,80,257,0.1,4.8,13.9,20.2,63.7,1013.6,0.00,0,0.0,0.0,0,0.0,19.6,0.0,11.6,3.473
2009/05/01,02:20:01,257,72,246,0.1,5.0,14.8,20.2,65.1,1013.4,0.00,0,0.0,0.0,0,0.0,19.4,0.0,11.7,3.473
2009/05/01,02:30:01,261,74,250,0.2,5.1,13.7,20.1,63.1,1013.4,0.00,0,0.0,0.0,0,0.0,19.2,0.0,11.7,3.473
2009/05/01,02:40:01,255,75,249,0.1,4.8,14.6,20.1,65.1,1013.1,0.00,0,0.0,0.0,0,0.0,19.2,0.0,11.6,3.473
2009/05/01,02:50:01,256,74,252,0.1,5.3,13.9,20.1,67.2,1013.1,0.00,0,0.0,0.0,0,0.0,19.2,0.0,11.7,3.472
2009/05/01,03:00:01,256,75,255,0.2,5.4,14.9,20.2,66.8,1013.1,0.00,0,0.0,0.0,0,0.0,19.2,0.0,11.5,3.472
2009/05/01,03:10:01,263,79,257,0.2,5.5,14.6,20.2,67.3,1013.0,0.00,0,0.0,0.0,0,0.0,19.2,0.0,11.6,3.473
2009/05/01,03:20:01,265,82,260,0.1,5.1,14.6,20.1,67.2,1013.1,0.00,0,0.0,0.0,0,0.0,19.2,0.0,11.6,3.473
2009/05/01,03:30:01,260,78,256,0.2,5.3,13.4,20.2,67.3,1012.9,0.00,0,0.0,0.0,0,0.0,19.4,0.0,11.5,3.474
2009/05/01,03:40:01,261,78,248,0.2,5.5,15.5,20.1,67.4,1012.9,0.00,0,0.0,0.0,0,0.0,19.1,0.0,11.6,3.473
2009/05/01,03:50:01,300,80,258,0.1,5.6,16.2,20.1,66.6,1013.0,0.00,0,0.0,0.0,0,0.0,19.2,0.0,11.6,3.474
2009/05/01,04:00:01,265,78,256,0.2,5.4,14.8,20.1,66.6,1012.9,0.00,0,0.0,0.0,0,0.0,19.2,0.0,12.0,3.473
2009/05/01,04:10:01,264,81,260,0.3,5.4,13.8,20.2,67.8,1012.9,0.00,0,0.0,0.0,0,0.0,19.2,0.0,11.5,3.474
2009/05/01,04:20:01,260,77,257,0.2,5.3,15.0,20.2,66.5,1012.7,0.00,0,0.0,0.0,0,0.0,19.4,0.0,11.7,3.473
2009/05/01,04:30:01,259,79,257,0.1,5.5,14.3,20.3,65.5,1012.9,0.00,0,0.0,0.0,0,0.0,19.4,0.0,12.0,3.473
2009/05/01,04:40:01,298,89,264,0.3,5.5,13.8,20.3,60.9,1013.2,0.00,0,0.0,0.0,0,0.0,19.6,0.0,11.7,3.473
2009/05/01,04:50:01,275,92,272,0.1,4.8,14.3,20.3,61.3,1013.2,0.00,0,0.0,0.0,0,0.0,19.4,0.0,11.8,3.473
2009/05/01,05:00:01,270,90,260,0.2,4.9,12.8,20.3,61.8,1013.2,0.00,0,0.0,0.0,0,0.0,19.4,0.0,11.9,3.474
2009/05/01,05:10:01,283,82,263,0.1,4.4,12.1,20.4,64.9,1013.3,0.00,0,0.0,0.0,0,0.0,19.6,0.0,11.9,3.473
2009/05/01,05:20:01,256,74,254,0.0,4.9,13.7,20.3,66.2,1013.3,0.00,0,0.0,0.0,0,0.0,19.6,0.0,11.7,3.473
2009/05/01,05:30:01,263,83,257,0.2,5.4,15.4,20.3,66.2,1013.4,0.00,0,0.0,0.0,0,0.0,19.4,0.0,11.6,3.473
2009/05/01,05:40:01,263,83,262,0.3,5.4,14.7,20.2,65.2,1013.6,0.00,0,0.0,0.0,0,0.0,19.4,0.0,11.9,3.473
2009/05/01,05:50:01,265,82,260,0.2,5.5,15.3,20.2,64.5,1013.6,0.00,0,0.0,0.0,0,0.0,19.6,0.0,11.8,3.473
2009/05/01,06:00:01,262,80,257,0.1,5.7,16.2,20.2,63.3,1013.8,0.00,0,0.0,0.0,0,0.0,19.4,0.0,11.5,3.476
2009/05/01,06:10:01,276,84,262,0.0,5.3,15.0,20.2,63.6,1013.7,0.00,0,0.0,0.0,0,0.0,19.4,0.0,11.9,3.469
2009/05/01,06:20:01,266,82,262,0.0,5.4,15.7,20.2,63.2,1013.9,0.00,0,0.0,0.0,0,0.0,19.6,0.0,11.8,3.473
2009/05/01,06:30:01,263,84,261,0.1,5.3,16.2,20.3,62.9,1014.0,0.00,0,0.0,0.0,0,0.0,19.9,0.0,11.7,3.473
2009/05/01,06:40:01,275,89,265,0.3,5.3,14.1,20.4,63.3,1014.1,0.00,0,0.0,0.0,0,0.0,20.1,0.0,12.0,3.472
2009/05/01,06:50:01,276,89,266,0.1,5.3,15.1,20.4,62.4,1014.1,0.00,0,0.0,0.0,0,0.0,20.2,0.0,12.0,3.473
2009/05/01,07:00:01,275,93,271,0.1,5.4,14.5,20.7,62.0,1014.1,0.00,0,0.0,0.0,0,0.0,20.9,0.0,12.1,3.472
2009/05/01,07:10:01,273,91,271,0.2,5.3,15.4,20.8,60.9,1014.2,0.00,0,0.0,0.0,0,0.0,21.2,0.0,11.6,3.472
2009/05/01,07:20:01,272,93,269,0.2,5.4,15.0,20.7,60.8,1014.1,0.00,0,0.0,0.0,0,0.0,21.2,0.0,11.7,3.470
2009/05/01,07:30:01,277,90,270,0.3,5.3,15.9,20.8,62.0,1014.0,0.00,0,0.0,0.0,0,0.0,21.1,0.0,11.8,3.472
2009/05/01,07:40:01,280,87,263,0.1,4.8,13.4,21.0,61.3,1014.3,0.00,0,0.0,0.0,0,0.0,21.9,0.0,11.9,3.473
2009/05/01,07:50:01,269,85,261,0.1,5.1,15.2,21.0,61.4,1014.3,0.00,0,0.0,0.0,0,0.0,21.4,0.0,11.6,3.473
2009/05/01,08:00:01,265,85,263,0.0,5.0,14.0,21.3,60.1,1014.4,0.00,0,0.0,0.0,0,0.0,21.9,0.0,12.1,3.470
2009/05/01,08:10:01,266,83,256,0.1,5.5,13.7,21.4,60.0,1014.4,0.00,0,0.0,0.0,0,0.0,22.9,0.0,11.7,3.472
2009/05/01,08:20:01,273,87,261,0.0,5.7,14.7,21.5,60.6,1014.5,0.00,0,0.0,0.0,0,0.0,22.7,0.0,12.1,3.473
2009/05/01,08:30:01,273,86,266,0.2,5.5,14.4,21.6,59.3,1014.5,0.00,0,0.0,0.0,0,0.0,22.9,0.0,11.8,3.472
2009/05/01,08:40:01,267,83,259,0.3,5.8,15.2,21.6,58.6,1014.6,0.00,0,0.0,0.0,0,0.0,23.3,0.0,12.1,3.469
2009/05/01,08:50:01,256,75,248,0.0,5.3,14.5,21.8,58.9,1014.7,0.00,0,0.0,0.0,0,0.0,23.4,0.0,11.9,3.470
2009/05/01,09:00:01,262,80,259,0.0,5.6,13.3,21.9,57.9,1014.9,0.00,0,0.0,0.0,0,0.0,23.8,0.0,11.8,3.472
2009/05/01,09:10:01,267,86,262,0.0,5.8,14.1,21.9,58.2,1014.8,0.00,0,0.0,0.0,0,0.0,23.9,0.0,12.0,3.470
2009/05/01,09:20:01,289,88,255,0.1,5.6,12.9,22.1,58.8,1014.9,0.00,0,0.0,0.0,0,0.0,24.1,0.0,11.7,3.472
2009/05/01,09:30:01,272,86,265,0.2,5.3,13.5,21.8,60.1,1015.0,0.00,0,0.0,0.0,0,0.0,23.3,0.0,12.2,3.472
2009/05/01,09:40:01,274,87,261,0.1,5.7,14.4,22.3,59.2,1015.0,0.00,0,0.0,0.0,0,0.0,24.3,0.0,12.1,3.472
2009/05/01,09:50:01,268,85,264,0.1,5.4,12.8,22.3,59.9,1014.9,0.00,0,0.0,0.0,0,0.0,23.8,0.0,11.7,3.472
2009/05/01,10:00:01,269,88,252,0.1,5.8,14.6,22.1,56.8,1015.0,0.00,0,0.0,0.0,0,0.0,23.9,0.0,11.8,3.472
2009/05/01,10:10:01,269,85,262,0.1,5.7,15.0,22.7,56.8,1015.1,0.00,0,0.0,0.0,0,0.0,24.8,0.0,11.8,3.470
2009/05/01,10:20:01,273,89,268,0.1,5.8,13.1,22.9,56.1,1015.1,0.00,0,0.0,0.0,0,0.0,25.4,0.0,11.8,3.473
2009/05/01,10:30:01,269,88,266,0.1,6.1,14.6,22.6,55.3,1015.0,0.00,0,0.0,0.0,0,0.0,24.8,0.0,12.0,3.472
2009/05/01,10:40:01,271,90,264,0.1,5.2,12.8,22.3,57.7,1014.9,0.00,0,0.0,0.0,0,0.0,23.6,0.0,12.0,3.470
2009/05/01,10:50:01,275,94,270,0.0,5.3,13.3,22.8,55.5,1015.0,0.00,0,0.0,0.0,0,0.0,25.1,0.0,12.0,3.470
2009/05/01,11:00:01,279,93,267,0.1,5.6,13.4,23.0,53.6,1014.8,0.00,0,0.0,0.0,0,0.0,25.6,0.0,11.7,3.469
2009/05/01,11:10:01,274,94,272,0.1,6.1,13.7,23.0,53.5,1014.8,0.00,0,0.0,0.0,0,0.0,25.6,0.0,12.1,3.472
2009/05/01,11:20:01,274,91,264,0.1,5.9,16.1,22.9,53.4,1014.7,0.00,0,0.0,0.0,0,0.0,25.6,0.0,11.9,3.470
2009/05/01,11:30:01,279,95,269,0.1,5.8,14.9,23.3,51.9,1014.6,0.00,0,0.0,0.0,0,0.0,25.8,0.0,11.8,3.470
2009/05/01,11:40:01,278,93,265,0.1,5.9,13.9,23.1,50.7,1014.5,0.00,0,0.0,0.0,0,0.0,25.9,0.0,11.9,3.470
2009/05/01,11:50:01,284,98,277,0.1,6.5,15.0,23.1,49.6,1014.4,0.00,0,0.0,0.0,0,0.0,25.6,0.0,11.7,3.470
2009/05/01,12:00:01,293,103,282,0.1,6.9,15.5,22.8,49.8,1014.4,0.00,0,0.0,0.0,0,0.0,25.1,0.0,12.0,3.472
2009/05/01,12:10:01,278,96,270,0.1,6.1,14.8,23.3,48.3,1014.3,0.00,0,0.0,0.0,0,0.0,25.8,0.0,12.2,3.469
2009/05/01,12:20:01,275,94,272,0.2,6.4,15.0,22.8,48.4,1014.2,0.00,0,0.0,0.0,0,0.0,25.3,0.0,12.0,3.470
2009/05/01,12:30:01,279,97,263,0.2,6.2,15.1,23.4,46.4,1014.1,0.00,0,0.0,0.0,0,0.0,25.6,0.0,12.1,3.470
2009/05/01,12:40:01,275,94,269,0.1,6.4,14.6,23.1,48.0,1014.1,0.00,0,0.0,0.0,0,0.0,25.4,0.0,11.7,3.470
2009/05/01,12:50:01,285,99,274,0.1,6.5,14.5,23.1,48.0,1014.1,0.00,0,0.0,0.0,0,0.0,25.4,0.0,12.0,3.470
2009/05/01,13:00:01,280,85,266,0.1,5.9,14.9,23.5,46.7,1014.0,0.00,0,0.0,0.0,0,0.0,25.9,0.0,11.9,3.470
2009/05/01,13:10:01,278,93,259,0.1,6.1,14.8,23.3,46.5,1014.1,0.00,0,0.0,0.0,0,0.0,25.9,0.0,12.2,3.472
2009/05/01,13:20:01,259,75,258,0.1,5.9,13.8,23.7,46.6,1014.0,0.00,0,0.0,0.0,0,0.0,26.3,0.0,12.2,3.470
2009/05/01,13:30:01,277,88,264,0.3,6.4,14.3,23.4,45.3,1013.8,0.00,0,0.0,0.0,0,0.0,25.9,0.0,12.1,3.469
2009/05/01,13:40:01,260,77,257,0.1,6.0,12.2,23.8,43.8,1013.7,0.00,0,0.0,0.0,0,0.0,26.4,0.0,11.9,3.467
2009/05/01,13:50:01,256,78,255,0.1,5.8,13.6,23.5,44.5,1013.6,0.00,0,0.0,0.0,0,0.0,26.9,0.0,11.9,3.470
2009/05/01,14:00:01,258,76,257,0.2,6.2,13.3,23.8,45.4,1013.5,0.00,0,0.0,0.0,0,0.0,26.3,0.0,12.0,3.468
2009/05/01,14:10:01,262,82,257,0.3,6.1,14.0,23.2,45.7,1013.4,0.00,0,0.0,0.0,0,0.0,25.9,0.0,11.9,3.470
2009/05/01,14:20:01,261,80,257,0.2,6.1,12.3,23.6,50.6,1013.2,0.00,0,0.0,0.0,0,0.0,26.1,0.0,12.1,3.470
2009/05/01,14:30:01,267,84,262,0.1,5.9,13.2,23.2,49.3,1013.1,0.00,0,0.0,0.0,0,0.0,25.8,0.0,11.8,3.470
2009/05/01,14:40:01,264,80,261,0.1,6.1,12.4,23.1,51.7,1013.1,0.00,0,0.0,0.0,0,0.0,25.6,0.0,11.9,3.472
2009/05/01,14:50:01,293,86,257,0.1,6.5,13.7,22.9,51.5,1013.0,0.00,0,0.0,0.0,0,0.0,25.1,0.0,12.0,3.470
2009/05/01,15:00:01,262,83,260,0.1,5.9,12.5,23.0,51.4,1012.9,0.00,0,0.0,0.0,0,0.0,25.3,0.0,12.0,3.472
2009/05/01,15:10:01,255,75,251,0.2,5.9,11.9,23.2,50.4,1012.8,0.00,0,0.0,0.0,0,0.0,25.8,0.0,12.1,3.469
2009/05/01,15:20:01,264,82,261,0.1,6.0,13.0,23.0,50.7,1012.7,0.00,0,0.0,0.0,0,0.0,25.3,0.0,11.7,3.470
2009/05/01,15:30:01,268,87,265,0.1,6.0,11.9,22.8,52.6,1012.7,0.00,0,0.0,0.0,0,0.0,24.9,0.0,11.7,3.470
2009/05/01,15:40:01,263,84,262,0.3,5.7,12.3,22.9,53.3,1012.6,0.00,0,0.0,0.0,0,0.0,24.9,0.0,11.7,3.469
2009/05/01,15:50:01,267,84,266,0.3,6.2,14.1,22.8,55.3,1012.6,0.00,0,0.0,0.0,0,0.0,24.8,0.0,11.7,3.470
2009/05/01,16:00:01,261,82,260,0.1,6.1,15.0,22.8,55.0,1012.7,0.00,0,0.0,0.0,0,0.0,24.6,0.0,11.8,3.470
2009/05/01,16:10:01,261,77,257,0.2,5.8,14.4,22.6,54.6,1012.6,0.00,0,0.0,0.0,0,0.0,24.8,0.0,11.9,3.475
2009/05/01,16:20:01,285,84,265,0.4,5.8,12.2,22.2,56.4,1012.6,0.00,0,0.0,0.0,0,0.0,23.8,0.0,11.7,3.472
2009/05/01,16:30:01,266,83,256,0.0,6.0,14.9,22.0,56.9,1012.5,0.00,0,0.0,0.0,0,0.0,23.6,0.0,11.9,3.472
2009/05/01,16:40:01,277,90,264,0.1,6.0,14.9,22.2,57.7,1012.4,0.00,0,0.0,0.0,0,0.0,23.6,0.0,12.0,3.472
2009/05/01,16:50:01,262,81,244,0.0,5.6,12.7,21.5,60.8,1012.5,0.00,0,0.0,0.0,0,0.0,23.6,0.0,12.0,3.472
2009/05/01,17:00:01,272,87,251,0.1,5.5,13.4,21.8,61.1,1012.4,0.00,0,0.0,0.0,0,0.0,22.6,0.0,11.9,3.470
2009/05/01,17:10:01,274,91,266,0.2,5.9,14.9,21.7,60.5,1012.5,0.00,0,0.0,0.0,0,0.0,22.7,0.0,11.9,3.472
2009/05/01,17:20:01,274,86,262,0.2,5.5,16.9,21.5,59.5,1012.5,0.00,0,0.0,0.0,0,0.0,22.2,0.0,11.7,3.472
2009/05/01,17:30:01,276,86,264,0.2,5.8,14.5,21.4,62.5,1012.6,0.00,0,0.0,0.0,0,0.0,21.4,0.0,12.0,3.472
2009/05/01,17:40:01,274,90,255,0.1,5.4,14.5,21.1,64.5,1012.8,0.00,0,0.0,0.0,0,0.0,20.9,0.0,11.7,3.470
2009/05/01,17:50:01,275,86,242,0.0,4.7,11.9,21.2,61.0,1012.7,0.00,0,0.0,0.0,0,0.0,21.2,0.0,11.9,3.473
2009/05/01,18:00:01,267,83,258,0.1,5.3,15.7,21.2,61.6,1012.8,0.00,0,0.0,0.0,0,0.0,21.2,0.0,12.1,3.472
2009/05/01,18:10:01,267,86,256,0.1,4.9,13.7,21.0,63.9,1012.9,0.00,0,0.0,0.0,0,0.0,20.9,0.0,12.1,3.473
2009/05/01,18:20:01,269,87,268,0.1,5.1,14.6,20.8,64.9,1012.8,0.00,0,0.0,0.0,0,0.0,20.4,0.0,12.0,3.473
2009/05/01,18:30:01,279,95,270,0.1,5.4,14.1,20.7,65.5,1012.9,0.00,0,0.0,0.0,0,0.0,20.1,0.0,12.2,3.473
2009/05/01,18:40:01,275,93,264,0.1,5.0,13.6,20.8,65.6,1012.9,0.00,0,0.0,0.0,0,0.0,19.9,0.0,11.9,3.473
2009/05/01,18:50:01,287,93,267,0.1,5.4,16.7,20.6,66.1,1013.1,0.00,0,0.0,0.0,0,0.0,19.9,0.0,11.8,3.472
2009/05/01,19:00:01,279,97,276,0.1,5.3,13.7,20.6,67.1,1013.4,0.00,0,0.0,0.0,0,0.0,19.7,0.0,11.6,3.473
2009/05/01,19:10:01,280,98,273,0.2,5.4,13.9,20.6,66.4,1013.5,0.00,0,0.0,0.0,0,0.0,19.7,0.0,11.8,3.473
2009/05/01,19:20:01,279,96,271,0.1,5.6,13.8,20.6,65.5,1013.7,0.00,0,0.0,0.0,0,0.0,19.6,0.0,11.9,3.473
2009/05/01,19:30:01,286,101,278,0.0,5.2,13.0,20.6,67.1,1013.7,0.00,0,0.0,0.0,0,0.0,19.6,0.0,11.6,3.473
2009/05/01,19:40:01,287,96,277,0.1,5.3,13.6,20.8,67.0,1013.9,0.00,0,0.0,0.0,0,0.0,19.9,0.0,11.8,3.472
2009/05/01,19:50:01,284,96,259,0.1,5.4,13.5,20.7,65.1,1014.0,0.00,0,0.0,0.0,0,0.0,19.9,0.0,11.8,3.473
2009/05/01,20:00:01,301,98,273,0.1,5.0,12.8,20.6,66.2,1014.1,0.00,0,0.0,0.0,0,0.0,19.7,0.0,11.7,3.473
2009/05/01,20:10:01,307,98,268,0.1,4.9,12.2,20.5,63.1,1013.9,0.00,0,0.0,0.0,0,0.0,19.7,0.0,12.0,3.474
2009/05/01,20:20:01,282,100,268,0.2,5.0,12.4,20.7,62.9,1014.0,0.00,0,0.0,0.0,0,0.0,19.7,0.0,11.6,3.472
2009/05/01,20:30:01,283,102,270,0.1,4.9,13.6,20.8,61.8,1014.1,0.00,0,0.0,0.0,0,0.0,19.7,0.0,11.6,3.473
2009/05/01,20:40:01,281,100,265,0.2,4.8,12.7,20.8,60.9,1014.3,0.00,0,0.0,0.0,0,0.0,20.6,0.0,11.8,3.472
2009/05/01,20:50:01,280,99,270,0.1,4.6,13.2,20.9,59.4,1014.2,0.00,0,0.0,0.0,0,0.0,19.9,0.0,11.7,3.472
2009/05/01,21:00:01,292,102,283,0.1,4.6,12.6,20.9,60.8,1014.2,0.00,0,0.0,0.0,0,0.0,20.2,0.0,11.7,3.473
2009/05/01,21:10:01,296,101,268,0.2,5.4,14.5,20.9,60.2,1014.3,0.00,0,0.0,0.0,0,0.0,20.1,0.0,11.9,3.472
2009/05/01,21:20:01,284,99,279,0.1,5.2,13.3,20.9,59.4,1014.4,0.00,0,0.0,0.0,0,0.0,20.2,0.0,11.7,3.472
2009/05/01,21:30:01,283,100,265,0.1,5.1,14.6,20.8,59.9,1014.6,0.00,0,0.0,0.0,0,0.0,20.1,0.0,11.6,3.472
2009/05/01,21:40:01,285,99,262,0.0,4.5,11.7,20.8,57.6,1014.6,0.00,0,0.0,0.0,0,0.0,20.1,0.0,11.6,3.472
2009/05/01,21:50:01,279,99,275,0.0,5.0,12.9,20.8,58.7,1014.6,0.00,0,0.0,0.0,0,0.0,19.9,0.0,11.9,3.472
2009/05/01,22:00:01,273,87,267,0.1,4.5,13.7,20.8,66.5,1014.6,0.00,0,0.0,0.0,0,0.0,19.4,0.0,11.9,3.473
2009/05/01,22:10:01,266,85,264,0.1,5.3,15.0,20.6,67.0,1014.7,0.00,0,0.0,0.0,0,0.0,19.7,0.0,11.7,3.473
2009/05/01,22:20:01,273,94,269,0.2,5.0,14.1,20.5,66.3,1014.6,0.00,0,0.0,0.0,0,0.0,19.9,0.0,11.9,3.473
2009/05/01,22:30:01,275,90,265,0.1,5.4,13.4,20.5,66.5,1014.7,0.00,0,0.0,0.0,0,0.0,19.6,0.0,12.0,3.472
2009/05/01,22:40:01,277,93,257,0.0,5.2,14.1,20.5,66.9,1014.7,0.00,0,0.0,0.0,0,0.0,19.6,0.0,11.9,3.472
2009/05/01,22:50:01,277,93,269,0.1,5.1,15.0,20.6,64.9,1014.5,0.00,0,0.0,0.0,0,0.0,19.7,0.0,12.0,3.474
2009/05/01,23:00:01,276,92,267,0.2,5.8,15.4,20.6,64.4,1014.5,0.00,0,0.0,0.0,0,0.0,19.9,0.0,12.0,3.472
2009/05/01,23:10:01,276,92,264,0.2,5.3,14.5,20.6,64.1,1014.4,0.00,0,0.0,0.0,0,0.0,19.7,0.0,11.7,3.472
2009/05/01,23:20:01,278,97,267,0.0,5.3,13.2,20.5,64.4,1014.4,0.00,0,0.0,0.0,0,0.0,19.7,0.0,11.6,3.473
2009/05/01,23:30:01,276,92,258,0.1,5.5,13.7,20.5,64.1,1014.2,0.00,0,0.0,0.0,0,0.0,19.7,0.0,11.8,3.472
2009/05/01,23:40:01,281,92,266,0.0,5.2,16.1,20.4,63.5,1014.2,0.00,0,0.0,0.0,0,0.0,19.6,0.0,11.9,3.473
2009/05/01,23:50:01,279,97,271,0.2,5.4,13.5,20.3,63.2,1014.2,0.00,0,0.0,0.0,0,0.0,19.7,0.0,11.8,3.473
2009/05/02,00:00:01,286,96,275,0.1,5.1,13.2,20.2,64.2,1014.1,0.00,0,0.0,0.0,0,0.0,19.2,0.0,11.6,3.468
2009/05/02,00:10:01,302,96,275,0.2,5.0,12.6,20.2,65.5,1014.1,0.00,0,0.0,0.0,0,0.0,19.1,0.0,11.6,3.472
2009/05/02,00:20:01,284,93,266,0.2,5.1,14.4,20.1,64.9,1014.0,0.00,0,0.0,0.0,0,0.0,19.1,0.0,11.5,3.473
2009/05/02,00:30:01,281,94,256,0.2,4.6,13.7,20.1,66.6,1013.9,0.00,0,0.0,0.0,0,0.0,19.1,0.0,11.6,3.473
2009/05/02,00:40:01,284,91,263,0.1,5.0,13.4,20.2,64.7,1013.7,0.00,0,0.0,0.0,0,0.0,19.2,0.0,12.0,3.473
2009/05/02,00:50:01,277,90,255,0.3,5.2,15.1,20.2,65.5,1013.5,0.00,0,0.0,0.0,0,0.0,19.2,0.0,12.0,3.473
2009/05/02,01:00:01,278,92,269,0.1,5.0,13.5,20.2,66.0,1013.6,0.00,0,0.0,0.0,0,0.0,19.2,0.0,12.0,3.473
2009/05/02,01:10:01,280,91,262,0.2,5.1,12.7,20.1,66.2,1013.3,0.00,0,0.0,0.0,0,0.0,19.1,0.0,11.5,3.473
2009/05/02,01:20:01,284,89,262,0.0,4.8,15.8,20.2,67.8,1013.4,0.00,0,0.0,0.0,0,0.0,19.1,0.0,11.5,3.472
2009/05/02,01:30:01,272,88,257,0.2,5.2,12.9,20.1,66.5,1013.3,0.00,0,0.0,0.0,0,0.0,18.9,0.0,11.9,3.473
2009/05/02,01:40:01,300,89,251,0.3,4.7,12.9,20.1,66.9,1013.3,0.00,0,0.0,0.0,0,0.0,19.1,0.0,12.0,3.474
2009/05/02,01:50:01,276,93,262,0.1,4.6,13.0,20.1,65.5,1013.3,0.00,0,0.0,0.0,0,0.0,19.1,0.0,11.8,3.472
2009/05/02,02:00:01,282,92,261,0.1,4.7,12.1,20.1,66.3,1013.3,0.00,0,0.0,0.0,0,0.0,19.2,0.0,11.7,3.473
2009/05/02,02:10:01,277,91,264,0.1,4.7,11.4,20.1,65.6,1013.3,0.00,0,0.0,0.0,0,0.0,19.2,0.0,11.5,3.473
2009/05/02,02:20:01,281,95,262,0.1,4.8,12.2,20.1,64.4,1013.3,0.00,0,0.0,0.0,0,0.0,19.1,0.0,11.6,3.472
2009/05/02,02:30:01,318,93,266,0.3,4.5,11.4,20.1,63.8,1013.2,0.00,0,0.0,0.0,0,0.0,19.2,0.0,11.7,3.473
2009/05/02,02:40:01,293,94,272,0.2,4.7,12.7,20.1,63.6,1013.0,0.00,0,0.0,0.0,0,0.0,19.2,0.0,11.6,3.472
2009/05/02,02:50:01,295,96,265,0.4,4.8,12.0,20.1,61.9,1012.8,0.00,0,0.0,0.0,0,0.0,19.2,0.0,11.6,3.474
2009/05/02,03:00:01,292,98,260,0.3,4.6,11.8,20.0,64.0,1012.8,0.00,0,0.0,0.0,0,0.0,19.1,0.0,12.0,3.474
2009/05/02,03:10:01,298,98,269,0.0,4.6,11.3,20.0,61.5,1012.8,0.00,0,0.0,0.0,0,0.0,19.1,0.0,11.6,3.473
2009/05/02,03:20:01,285,97,261,0.1,4.5,12.4,20.0,62.2,1012.8,0.00,0,0.0,0.0,0,0.0,19.1,0.0,12.0,3.472
2009/05/02,03:30:01,282,99,275,0.1,3.9,9.9,19.9,62.7,1012.7,0.00,0,0.0,0.0,0,0.0,18.9,0.0,11.7,3.473
2009/05/02,03:40:01,297,98,257,0.1,4.4,10.8,20.0,62.3,1012.6,0.00,0,0.0,0.0,0,0.0,18.9,0.0,11.8,3.473
2009/05/02,03:50:01,294,98,265,0.1,4.3,11.9,19.9,61.7,1012.5,0.00,0,0.0,0.0,0,0.0,18.9,0.0,11.7,3.473
2009/05/02,04:00:01,285,99,265,0.1,4.4,11.4,20.0,62.0,1012.4,0.00,0,0.0,0.0,0,0.0,18.9,0.0,11.7,3.472
2009/05/02,04:10:01,286,98,262,0.2,4.4,12.2,19.9,64.4,1012.4,0.00,0,0.0,0.0,0,0.0,18.6,0.0,11.5,3.473
2009/05/02,04:20:01,278,94,260,0.2,4.5,11.8,19.9,63.8,1012.3,0.00,0,0.0,0.0,0,0.0,18.7,0.0,11.9,3.473
2009/05/02,04:30:01,280,91,272,0.1,4.7,12.7,20.0,64.8,1012.2,0.00,0,0.0,0.0,0,0.0,19.1,0.0,11.6,3.470
2009/05/02,04:40:01,295,96,275,0.2,4.8,13.2,20.1,64.2,1012.3,0.00,0,0.0,0.0,0,0.0,19.1,0.0,11.9,3.473
2009/05/02,04:50:01,294,95,274,0.1,4.8,12.5,20.0,64.0,1012.1,0.00,0,0.0,0.0,0,0.0,19.1,0.0,11.9,3.472
2009/05/02,05:00:01,278,91,271,0.1,4.6,15.6,19.9,64.7,1012.3,0.00,0,0.0,0.0,0,0.0,18.9,0.0,12.0,3.473
2009/05/02,05:10:01,291,95,263,0.1,4.5,11.9,20.0,63.4,1012.2,0.00,0,0.0,0.0,0,0.0,19.1,0.0,12.0,3.473
2009/05/02,05:20:01,274,93,264,0.1,4.3,12.5,20.0,64.0,1012.2,0.00,0,0.0,0.0,0,0.0,18.9,0.0,11.8,3.474
2009/05/02,05:30:01,280,95,258,0.0,4.6,12.0,19.9,60.8,1012.0,0.00,0,0.0,0.0,0,0.0,19.1,0.0,12.0,3.473
2009/05/02,05:40:01,304,98,265,0.0,4.7,11.8,19.9,61.4,1011.9,0.00,0,0.0,0.0,0,0.0,18.9,0.0,12.0,3.473
2009/05/02,05:50:01,290,98,275,0.1,5.0,15.4,20.0,59.6,1011.9,0.00,0,0.0,0.0,0,0.0,19.1,0.0,11.8,3.472
2009/05/02,06:00:01,304,96,270,0.0,5.2,12.0,20.0,61.2,1012.1,0.00,0,0.0,0.0,0,0.0,19.1,0.0,11.6,3.475
2009/05/02,06:10:01,315,101,279,0.2,4.9,13.5,20.0,59.9,1012.2,0.00,0,0.0,0.0,0,0.0,19.1,0.0,11.7,3.473
2009/05/02,06:20:01,288,98,271,0.1,5.1,13.9,20.2,59.2,1012.3,0.00,0,0.0,0.0,0,0.0,19.4,0.0,11.8,3.473
2009/05/02,06:30:01,286,104,264,0.0,4.5,11.4,20.3,57.8,1012.4,0.00,0,0.0,0.0,0,0.0,19.9,0.0,12.0,3.472
2009/05/02,06:40:01,306,103,282,0.1,5.2,14.2,20.4,57.3,1012.5,0.00,0,0.0,0.0,0,0.0,20.2,0.0,12.2,3.472
2009/05/02,06:50:01,302,99,270,0.1,5.3,14.1,20.5,56.2,1012.6,0.00,0,0.0,0.0,0,0.0,20.4,0.0,11.8,3.473
2009/05/02,07:00:01,290,101,276,0.1,5.1,12.2,20.4,57.5,1012.6,0.00,0,0.0,0.0,0,0.0,20.4,0.0,11.7,3.473
2009/05/02,07:10:01,290,99,275,0.1,4.9,13.5,20.9,55.1,1012.7,0.00,0,0.0,0.0,0,0.0,21.1,0.0,12.0,3.472
2009/05/02,07:20:01,282,91,266,0.2,5.1,12.7,21.1,55.4,1012.9,0.00,0,0.0,0.0,0,0.0,21.7,0.0,12.0,3.472
2009/05/02,07:30:01,288,101,278,0.2,5.3,12.3,21.0,57.0,1012.9,0.00,0,0.0,0.0,0,0.0,21.6,0.0,11.6,3.473
2009/05/02,07:40:01,279,97,267,0.1,5.2,13.8,21.1,55.5,1012.9,0.00,0,0.0,0.0,0,0.0,21.9,0.0,11.9,3.472
2009/05/02,07:50:01,291,100,265,0.2,5.4,13.1,20.9,54.5,1012.9,0.00,0,0.0,0.0,0,0.0,21.6,0.0,12.1,3.472
2009/05/02,08:00:01,282,97,273,0.1,5.4,13.2,21.0,54.6,1013.0,0.00,0,0.0,0.0,0,0.0,21.4,0.0,11.7,3.473
2009/05/02,08:10:01,267,86,263,0.1,5.2,13.2,21.2,51.6,1013.1,0.00,0,0.0,0.0,0,0.0,21.9,0.0,11.7,3.472
2009/05/02,08:20:01,273,86,265,0.1,5.5,12.7,21.7,52.0,1013.1,0.00,0,0.0,0.0,0,0.0,23.3,0.0,12.2,3.470
2009/05/02,08:30:01,265,84,263,0.0,5.7,13.0,21.7,50.2,1013.1,0.00,0,0.0,0.0,0,0.0,23.4,0.0,11.8,3.470
2009/05/02,08:40:01,262,82,257,0.1,5.5,11.9,21.9,50.5,1013.0,0.00,0,0.0,0.0,0,0.0,23.8,0.0,12.0,3.472
2009/05/02,08:50:01,265,85,265,0.1,5.4,12.1,22.0,49.1,1013.2,0.00,0,0.0,0.0,0,0.0,23.9,0.0,12.0,3.472
2009/05/02,09:00:01,274,85,261,0.1,5.4,13.2,22.0,49.3,1013.1,0.00,0,0.0,0.0,0,0.0,24.4,0.0,12.1,3.472
2009/05/02,09:10:01,265,84,258,0.1,5.5,12.1,22.2,50.1,1013.3,0.00,0,0.0,0.0,0,0.0,24.8,0.0,12.0,3.469
2009/05/02,09:20:01,268,85,263,0.0,5.1,12.8,22.3,50.1,1013.3,0.00,0,0.0,0.0,0,0.0,24.6,0.0,11.7,3.470
2009/05/02,09:30:01,274,89,266,0.1,5.3,13.0,22.4,48.5,1013.4,0.00,0,0.0,0.0,0,0.0,24.6,0.0,11.9,3.470
2009/05/02,09:40:01,306,87,265,0.2,5.0,12.6,22.7,50.0,1013.4,0.00,0,0.0,0.0,0,0.0,25.1,0.0,11.7,3.470
2009/05/02,09:50:01,271,87,265,0.1,5.4,13.0,22.6,48.0,1013.3,0.00,0,0.0,0.0,0,0.0,25.1,0.0,11.7,3.469
2009/05/02,10:00:01,274,92,268,0.1,4.9,12.5,22.9,48.9,1013.4,0.00,0,0.0,0.0,0,0.0,25.3,0.0,12.0,3.470
2009/05/02,10:10:01,274,93,264,0.0,5.3,13.2,22.8,48.6,1013.2,0.00,0,0.0,0.0,0,0.0,25.4,0.0,11.7,3.472
2009/05/02,10:20:01,276,92,271,0.1,5.0,12.0,22.9,48.9,1013.2,0.00,0,0.0,0.0,0,0.0,25.6,0.0,12.1,3.470
2009/05/02,10:30:01,270,88,266,0.1,5.3,12.7,22.7,52.4,1013.1,0.00,0,0.0,0.0,0,0.0,25.3,0.0,12.0,3.470
2009/05/02,10:40:01,277,87,268,0.1,5.3,13.0,22.8,53.2,1013.1,0.00,0,0.0,0.0,0,0.0,25.8,0.0,12.0,3.470
2009/05/02,10:50:01,281,92,265,0.1,5.1,14.0,23.4,53.4,1013.0,0.00,0,0.0,0.0,0,0.0,26.1,0.0,11.8,3.470
2009/05/02,11:00:01,270,89,268,0.0,5.2,13.9,23.0,53.9,1012.9,0.00,0,0.0,0.0,0,0.0,25.9,0.0,12.2,3.470
2009/05/02,11:10:01,268,87,263,0.1,5.1,12.6,23.2,52.7,1012.9,0.00,0,0.0,0.0,0,0.0,26.3,0.0,12.2,3.470
2009/05/02,11:20:01,292,91,266,0.0,5.3,12.7,22.8,53.4,1012.9,0.00,0,0.0,0.0,0,0.0,25.8,0.0,11.9,3.470
2009/05/02,11:30:01,265,81,261,0.0,5.2,12.7,22.0,55.7,1012.9,0.00,0,0.0,0.0,0,0.0,24.3,0.0,11.7,3.473
2009/05/02,11:40:01,263,81,260,0.1,5.1,13.9,22.8,53.6,1012.8,0.00,0,0.0,0.0,0,0.0,25.3,0.0,11.8,3.472
2009/05/02,11:50:01,283,85,264,0.1,5.7,13.2,22.9,53.9,1012.7,0.00,0,0.0,0.0,0,0.0,25.8,0.0,12.0,3.474
2009/05/02,12:00:01,264,84,262,0.1,5.1,12.0,23.2,53.3,1012.6,0.00,0,0.0,0.0,0,0.0,26.4,0.0,11.8,3.470
2009/05/02,12:10:01,273,88,264,0.1,5.0,12.5,23.1,53.8,1012.4,0.00,0,0.0,0.0,0,0.0,26.1,0.0,11.8,3.470
2009/05/02,12:20:01,265,79,254,0.0,5.4,13.2,22.2,57.8,1012.4,0.00,0,0.0,0.0,0,0.0,24.4,0.0,11.7,3.470
2009/05/02,12:30:01,265,80,259,0.1,5.1,11.7,22.6,56.7,1012.3,0.00,0,0.0,0.0,0,0.0,25.1,0.0,11.6,3.470
2009/05/02,12:40:01,258,75,238,0.0,4.7,12.5,23.1,56.1,1012.2,0.00,0,0.0,0.0,0,0.0,25.6,0.0,11.9,3.470
2009/05/02,12:50:01,261,77,253,0.1,5.1,14.1,22.1,59.6,1012.0,0.00,0,0.0,0.0,0,0.0,23.6,0.0,12.1,3.472
2009/05/02,13:00:01,274,82,261,0.2,5.7,14.5,22.8,57.0,1011.9,0.00,0,0.0,0.0,0,0.0,25.1,0.0,11.7,3.473
2009/05/02,13:10:01,274,87,265,0.1,5.5,13.1,23.1,54.3,1011.8,0.00,0,0.0,0.0,0,0.0,25.9,0.0,12.0,3.469
2009/05/02,13:20:01,275,89,265,0.3,5.4,11.9,23.3,52.6,1011.6,0.00,0,0.0,0.0,0,0.0,26.1,0.0,12.1,3.470
2009/05/02,13:30:01,270,88,266,0.0,5.2,12.2,23.3,52.3,1011.6,0.00,0,0.0,0.0,0,0.0,26.1,0.0,11.8,3.472
2009/05/02,13:40:01,276,92,263,0.0,5.2,11.7,23.2,52.1,1011.3,0.00,0,0.0,0.0,0,0.0,25.9,0.0,12.1,3.469
2009/05/02,13:50:01,276,89,268,0.0,5.1,12.8,23.3,52.0,1011.2,0.00,0,0.0,0.0,0,0.0,25.9,0.0,11.9,3.469
2009/05/02,14:00:01,276,90,265,0.1,5.5,12.3,23.1,53.7,1011.0,0.00,0,0.0,0.0,0,0.0,25.8,0.0,12.2,3.469
2009/05/02,14:10:01,274,93,269,0.2,5.3,13.3,23.0,53.7,1010.8,0.00,0,0.0,0.0,0,0.0,25.8,0.0,11.7,3.470
2009/05/02,14:20:01,270,89,265,0.1,5.5,13.4,22.9,54.6,1010.7,0.00,0,0.0,0.0,0,0.0,25.6,0.0,11.8,3.470
2009/05/02,14:30:01,265,85,264,0.2,5.3,13.3,22.7,54.2,1010.6,0.00,0,0.0,0.0,0,0.0,25.1,0.0,11.8,3.472